Regional Weather Roundup
Issued by NWS Raleigh/Durham, NC

Home | Current Version | Previous Version | Text Only | Print | Product List | Glossary On
Versions: 1 2 3 4 5 6 7 8 9 10 11 12 13 14 15 16 17 18 19 20 21 22 23 24 25 26 27 28
000
ASUS42 KRAH 261110
RWRRAH
NORTH CAROLINA WEATHER ROUNDUP
NATIONAL WEATHER SERVICE RALEIGH NC
700 AM EDT MON JUN 26 2017

NOTE: "FAIR" INDICATES FEW OR NO CLOUDS BELOW 12,000 FEET WITH NO
SIGNIFICANT WEATHER AND/OR OBSTRUCTIONS TO VISIBILITY.

NCZ001-053-055-056-065-067-261200-
WESTERN NORTH CAROLINA

CITY           SKY/WX    TMP DP  RH WIND       PRES   REMARKS
ASHEVILLE      CLEAR     54  49  83 N7        30.22S
JEFFERSON      CLEAR     57  43  59 N3        30.22S
HICKORY        CLEAR     58  54  86 NW5       30.15S
RUTHERFORDTON  NOT AVBL
MOUNT AIRY     CLEAR     55  50  85 CALM      30.18S
BOONE          NOT AVBL
$$

NCZ021-022-025-041-071-084-088-261200-
CENTRAL NORTH CAROLINA

CITY           SKY/WX    TMP DP  RH WIND       PRES   REMARKS
CHARLOTTE      PTCLDY    63  58  83 N6        30.14S
GREENSBORO     PTCLDY    63  52  67 NW5       30.13R
WINSTON-SALEM  CLEAR     61  50  67 NW6       30.15S
RALEIGH-DURHAM MOSUNNY   62  59  90 CALM      30.12R
FORT BRAGG     PTCLDY    67  60  77 N5        30.10R
FAYETTEVILLE   PTCLDY    70  61  73 N3        30.10R
BURLINGTON     CLEAR     61  56  83 CALM      30.12R
LAURINBURG     MOCLDY    69  62  78 N5        30.12R
$$

NCZ011-015-027-028-043-044-047-080-103-261200-
NORTHEASTERN NORTH CAROLINA

CITY           SKY/WX    TMP DP  RH WIND       PRES   REMARKS
ROCKY MT-WILSO PTSUNNY   62  62 100 CALM      30.10R
GREENVILLE     PTSUNNY   64  61  88 CALM      30.11R
WASHINGTON       N/A    N/A N/A N/A CALM      30.09R
ELIZABETH CITY MOSUNNY   68  64  87 NW9       30.08R
MANTEO         CLOUDY    73  64  71 N5        30.07R
CAPE HATTERAS  CLOUDY    77  61  57 VRB6      30.06R
$$

NCZ078-087-090-091-093-098-101-261200-
SOUTHEASTERN NORTH CAROLINA

CITY           SKY/WX    TMP DP  RH WIND       PRES   REMARKS
LUMBERTON      MOCLDY    71  64  78 N5        30.09R
GOLDSBORO      MOSUNNY   69  62  80 CALM      30.08R
KINSTON        PTSUNNY   66  61  82 N5        30.10S
KENANSVILLE    CLOUDY    70  61  73 N6        30.10R
NEW BERN       MOSUNNY   71  62  73 N6        30.09R
CHERRY POINT   MOSUNNY   74  61  63 N8        30.09R
BEAUFORT       MOSUNNY   73  66  78 N6        30.06S
JACKSONVILLE   PTSUNNY   73  64  73 N9        30.07R
WILMINGTON     CLOUDY    73  70  90 CALM      30.08R
$$





USA.gov is the U.S. government's official web portal to all federal, state and local government web resources and services.